This demonstration page uses our WeatherBlox Daily Observations layout. Learn more.

Left ArrowRight Arrow

Hourly Observations for April 30, 2019

Temp ( °F °C ) Dew Point ( °F °C ) Humidity (%) Winds ( mph kmh ) Pressure ( in mb ) Visibility ( mi km ) Precip ( " mm )
12:55 am 00:55 Cloudy 54 12.2 51 10.6 90 90 E 3 6 30.12 1020 10 16 0.00 0.00
1:35 am 01:35 Cloudy with Thunderstorms 54 12 52 11 94 94 ESE 5 7 30.11 1020 10 16 0.00 0.00
1:55 am 01:55 Cloudy with Nearby Thunderstorms 53 11.7 52 11.1 96 96 Calm 30.11 1020 10 16 0.01 0.25
2:13 am 02:13 Cloudy with Rain 54 12.2 51 10.6 90 90 VRB 3 6 30.12 1020 6 10 0.01 0.25
2:55 am 02:55 Cloudy 53 11.7 51 10.6 93 93 E 6 9 30.09 1019 9 14 0.03 0.76
3:55 am 03:55 Cloudy with Light Rain 53 11.7 52 11.1 96 96 Calm 30.11 1020 5 8 0.02 0.51
4:16 am 04:16 Cloudy with Nearby Thunderstorms 53 11.7 52 11.1 96 96 VRB 6 9 30.08 1019 3 5 0.08 2.03
4:28 am 04:28 Cloudy with Strong Thunderstorms 52 11.1 51 10.6 97 97 E 8 13 30.08 1019 3 4 0.15 3.81
4:50 am 04:50 Cloudy with Nearby Thunderstorms 52 11 52 11 100 100 ESE 9 15 30.09 1019 3 4 0.34 8.64
4:55 am 04:55 Cloudy with Nearby Thunderstorms 52 11.1 51 10.6 97 97 E 12 19 30.11 1020 5 8 0.34 8.64
5:02 am 05:02 Cloudy with Thunderstorms 52 11.1 51 10.6 97 97 ENE 12 19 30.11 1020 7 11 0.00 0.03
5:17 am 05:17 Cloudy with Nearby Thunderstorms 51 10.6 51 10.6 100 100 E 12 19 30.08 1019 6 10 0.00 0.03
5:27 am 05:27 Cloudy with Mist and Fog 52 11.1 52 11.1 100 100 E 9 15 30.08 1019 6 10 0.00 0.03
5:30 am 05:30 Cloudy with Mist and Fog 52 11.1 52 11.1 100 100 E 7 11 30.08 1019 6 10 0.00 0.03
5:39 am 05:39 Cloudy 52 11.1 52 11.1 100 100 E 9 15 30.08 1019 7 11 0.00 0.03
5:55 am 05:55 Cloudy 52 11.1 50 10 93 93 ENE 10 17 30.11 1020 10 16 0.00 0.03
6:07 am 06:07 Cloudy 51 10.6 50 10 96 96 E 13 20 30.09 1019 10 16 0.00 0.00
6:18 am 06:18 Cloudy 52 11 50 10 94 94 E 14 22 30.09 1019 7 11 0.00 0.00
6:27 am 06:27 Cloudy 52 11 50 10 94 94 E 12 19 30.09 1019 9 14 0.00 0.00
6:55 am 06:55 Cloudy 51 10.6 49 9.4 92 92 E 16 26 30.09 1019 10 16 0.00 0.00
7:55 am 07:55 Cloudy 51 10.6 50 10 96 96 E 17 28 30.07 1018 10 16 0.01 0.25
8:12 am 08:12 Cloudy with Mist and Fog 52 11 52 11 100 100 E 15 24 30.06 1018 4 6 0.00 0.00
8:24 am 08:24 Cloudy with Mist and Fog 51 10.6 50 10 96 96 E 12 19 30.07 1018 2 3 0.00 0.00
8:32 am 08:32 Cloudy with Light Rain 51 10.6 50 10 96 96 ENE 14 22 30.06 1018 2 3 0.00 0.03
8:50 am 08:50 Cloudy with Light Rain 52 11 50 10 94 94 NNE 10 17 30.08 1019 3 4 0.04 1.02
8:55 am 08:55 Cloudy with Light Rain 50 10 50 10 100 100 NW 10 17 30.11 1020 3 4 0.04 1.02
9:03 am 09:03 Cloudy with Nearby Thunderstorms 50 10 50 10 100 100 NNE 9 15 30.11 1020 2 2 0.02 0.51
9:11 am 09:11 Cloudy with Strong Thunderstorms 50 10 50 10 100 100 NW 10 17 30.16 1021 1 2 0.09 2.29
9:26 am 09:26 Cloudy with Nearby Thunderstorms 50 10 49 9.4 96 96 NE 16 26 30.08 1019 2 3 0.28 7.11
9:30 am 09:30 Cloudy with Nearby Thunderstorms 50 10 48 9 94 94 NNE 15 24 30.08 1019 3 5 0.00 0.00
9:35 am 09:35 Cloudy with Thunderstorms 50 10 50 10 100 100 NNE 9 15 30.11 1020 2 3 0.30 7.62
9:43 am 09:43 Cloudy with Strong Thunderstorms 50 10 50 10 100 100 Calm 30.15 1021 1 1 0.41 10.41
9:50 am 09:50 Cloudy with Strong Thunderstorms 50 10 50 10 100 100 NE 10 17 30.11 1020 1 1 0.59 14.99
9:55 am 09:55 Cloudy with Strong Thunderstorms 50 10 49 9.4 96 96 NE 15 24 30.08 1019 1 2 0.64 16.26
10:02 am 10:02 Cloudy with Nearby Thunderstorms 50 10 48 9 94 94 NE 16 26 30.07 1018 2 3 0.00 0.00
10:16 am 10:16 Cloudy with Nearby Thunderstorms 50 10 49 9.4 96 96 ENE 10 17 30.09 1019 3 5 0.06 1.52
10:27 am 10:27 Cloudy with Nearby Thunderstorms 50 10 49 9.4 96 96 ENE 16 26 30.08 1019 3 4 0.11 2.79
10:41 am 10:41 Cloudy with Rain 50 10 50 10 100 100 E 15 24 30.07 1018 2 3 0.00 0.00
10:48 am 10:48 Cloudy with Nearby Thunderstorms 50 10 50 10 100 100 E 18 30 30.05 1018 3 4 0.20 5.08
10:55 am 10:55 Cloudy with Nearby Thunderstorms 50 10 50 10 100 100 E 15 24 30.06 1018 4 6 0.23 5.84
11:02 am 11:02 Cloudy with Light Rain 50 10 50 10 100 100 E 14 22 30.06 1018 7 11 0.01 0.25
11:09 am 11:09 Cloudy with Light Rain 50 10 50 10 100 100 ENE 16 26 30.03 1017 7 11 0.01 0.25
11:33 am 11:33 Cloudy 51 10.6 50 10 96 96 E 15 24 30.04 1017 10 16 0.02 0.51
11:55 am 11:55 Cloudy 51 10.6 51 10.6 100 100 E 23 37 29.98 1015 10 16 0.02 0.51
12:19 pm 12:19 Cloudy 52 11.1 51 10.6 97 97 ESE 22 35 29.98 1015 10 16 0.00 0.00
12:47 pm 12:47 Mostly Cloudy 54 12.2 52 11.1 93 93 SE 10 17 30.01 1016 10 16 0.00 0.00
12:55 pm 12:55 Cloudy 54 12.2 52 11.1 93 93 Calm 30.03 1017 10 16 0.00 0.00
1:55 pm 13:55 Cloudy 54 12.2 52 11.1 93 93 E 10 17 30.00 1016 10 16 0.00 0.00
2:55 pm 14:55 Cloudy 54 12.2 51 10.6 90 90 E 13 20 29.95 1014 10 16 0.00 0.00
3:55 pm 15:55 Cloudy with Light Rain 54 12.2 52 11.1 93 93 Calm 29.99 1016 9 14 0.01 0.25
4:27 pm 16:27 Cloudy with Light Rain 54 12 52 11 94 94 E 9 15 29.95 1014 5 8 0.00 0.00
4:47 pm 16:47 Cloudy with Light Rain 53 11.7 52 11.1 96 96 ESE 8 13 29.95 1014 6 10 0.07 1.78
4:55 pm 16:55 Cloudy with Light Rain 53 11.7 52 11.1 96 96 SE 9 15 29.97 1015 6 10 0.08 2.03
5:47 pm 17:47 Cloudy with Light Rain 53 11.7 52 11.1 96 96 ENE 10 17 29.91 1013 7 11 0.12 3.05
5:55 pm 17:55 Cloudy with Light Rain 53 11.7 52 11.1 96 96 ENE 12 19 29.92 1013 10 16 0.13 3.30
6:16 pm 18:16 Cloudy 53 11.7 52 11.1 96 96 E 9 15 29.91 1013 10 16 0.00 0.03
6:41 pm 18:41 Cloudy 54 12 52 11 94 94 E 8 13 29.92 1013 10 16 0.00 0.00
6:55 pm 18:55 Cloudy with Mist and Fog 53 11.7 52 11.1 96 96 E 10 17 29.92 1013 6 10 0.00 0.03
7:02 pm 19:02 Cloudy with Light Rain 53 11.7 52 11.1 96 96 E 10 17 29.90 1013 6 10 0.00 0.03
7:55 pm 19:55 Cloudy with Light Rain 53 11.7 53 11.7 100 100 NNE 7 11 29.93 1013 5 8 0.02 0.51
8:06 pm 20:06 Cloudy with Light Rain 54 12 54 12 100 100 NNW 6 9 29.93 1014 6 10 0.00 0.00
8:53 pm 20:53 Cloudy with Rain 54 12 52 11 94 94 NE 5 7 29.95 1014 4 6 0.10 2.54
8:54 pm 20:54 Cloudy with Rain 53 11.7 52 11.1 96 96 NE 5 7 29.96 1015 4 6 0.10 2.54
9:02 pm 21:02 Cloudy with Rain 54 12 54 12 100 100 NE 5 7 29.96 1015 4 6 0.00 0.00
9:27 pm 21:27 Cloudy with Nearby Thunderstorms 54 12 54 12 100 100 ENE 6 9 29.95 1014 3 5 0.00 0.00
9:42 pm 21:42 Cloudy with Rain 54 12 52 11 94 94 ENE 7 11 29.94 1014 3 5 0.00 0.00
9:52 pm 21:52 Cloudy with Rain 54 12 52 11 94 94 E 10 17 29.92 1013 3 5 0.00 0.00
9:55 pm 21:55 Cloudy with Rain 53 11.7 52 11.1 96 96 E 14 22 29.91 1013 3 5 0.28 7.11
10:06 pm 22:06 Cloudy with Light Rain 52 11.1 52 11.1 100 100 E 21 33 29.83 1010 5 8 0.03 0.76
10:17 pm 22:17 Cloudy with Light Rain 54 12 54 12 100 100 ESE 21 33 29.81 1010 8 13 0.00 0.00
10:42 pm 22:42 Mostly Cloudy 54 12 54 12 100 100 ESE 20 31 29.72 1007 10 16 0.00 0.00
10:55 pm 22:55 Mostly Cloudy 55 12.8 55 12.8 100 100 VRB 5 7 29.79 1009 10 16 0.04 1.02
11:55 pm 23:55 Mostly Clear 55 12.8 54 12.2 96 96 VRB 3 6 29.79 1009 10 16 0.00 0.00

Powered by Vaisala Xweather